Tracking 19638 objects as of 22-Apr-2019
HD Live streaming from Space Station
objects crossing your sky now

COSMOS 529

Track COSMOS 529 now!
10-day predictions
COSMOS 529 is classified as:


NORAD ID: 6264
Int'l Code: 1972-087B
Perigee: 1,408.9 km
Apogee: 1,474.6 km
Inclination: 74.0 °
Period: 114.5 minutes
Semi major axis: 7812 km
RCS: 0.695 m2 (medium)
Launch date: November 1, 1972
Source: Commonwealth of Independent States (former USSR) (CIS)
Launch site: PLESETSK MISSILE AND SPACE COMPLEX (PKMTR)
aabbcc
Your satellite tracking list
Your tracking list is empty




NASA's NSSDC Master Catalog

Two Line Element Set (TLE):
1  6264U 72087B   19110.93093240 -.00000021 +00000-0 -28588-4 0  9994
2  6264 074.0320 277.0551 0042048 161.7834 006.1885 12.57167216132441
Source of the keplerian elements: AFSPC